www.pogodaiklimat.ru

Погода и климат >> Архив погоды >> Россия >> Якутия >> Сухана


ПОГОДА в Сухане

  • Прогноз погоды в Сухане
  • Монитор погоды в Сухане

АРХИВ ПОГОДЫ в Сухане

Время (UTC), дата Ветер
(напр.,м/с)
 
Видим.   Явления Облачность Т
(С)
Тd
(С)
f
(%)
Тe
(С)
Тes
(С)
Комфортность P
(гПа)
Po
(гПа)
Тmin
(С)
Tmax
(С)
R
(мм)
R24
(мм)
S
(см)
06 13.02 штиль 0 50 км ясно -40.5 -43.8 70 -41 -40 опасность
обморожения
1012.4 1001.0
09 13.02 штиль 0 50 км ясно -40.8 -44.4 68 -41 -41 опасность
обморожения
1012.7 1001.3
12 13.02 штиль 0 50 км 3/0
[Ci fib]
-42.5 -44.8 78 -43 -43 опасность
обморожения
1013.5 1001.8 -39.3
15 13.02 штиль 0 50 км 10/0
[Cs]
-42.4 -44.8 77 -42 -42 опасность
обморожения
1012.8 1001.4
18 13.02 штиль 0 20 км слаб. снег 10/0
[Ac trans Cs]
-41.0 -43.8 74 -41 -41 опасность
обморожения
1012.4 1001.0
21 13.02 штиль 0 20 км слаб. снег 10/0
[Cs]
-39.6 -42.2 76 -40 -40 опасность
обморожения
1011.1 999.8
00 14.02 штиль 0 20 км слаб. снег 10/0
[Cs]
-36.6 -39.4 75 -37 -37 опасность
обморожения
1010.5 999.4 -43.5 0.3 23
03 14.02 ЮВ 1 20 км слаб. снег 10/0
[Ac trans Cs]
-34.6 -37.4 76 -39 -39 опасность
обморожения
1009.6 998.5
06 14.02 Ю 2 20 км слаб. снег 10/0
[As op]
-31.3 -34.2 75 -39 -39 опасность
обморожения
1007.4 996.6
09 14.02 штиль 0 20 км слаб. снег 10/0
[As op]
-28.3 -30.7 80 -28 -28 1006.1 995.3
12 14.02 штиль 0 20 км слаб. снег 10/0
[As op]
-27.0 -29.4 80 -27 -27 1005.3 993.7 -27.0 1
15 14.02 штиль 0 50 км {снег} 3/0
[]
-24.4 -26.9 80 -24 -24 1002.0 991.4
18 14.02 штиль 0 10 км слаб. снег 10/0
[As op]
-22.3 -24.8 80 -22 -22 1000.0 989.7
21 14.02 штиль 0 50 км {снег} 10/0
[Ac As]
-21.0 -23.5 80 -21 -21 999.7 989.4
00 15.02 С 1 50 км {снег} 10/0
[Ac As]
-23.2 -25.1 84 -27 -27 999.6 989.1 -27.0 1 26
03 15.02 штиль 0 50 км 8/0
[Ac As]
-22.5 -25.0 80 -23 -22 998.1 987.8
06 15.02 ЮЗ 1 50 км 10/0
[Ac As Cs]
-19.7 -22.3 80 -23 -23 997.2 986.9
09 15.02 Ю 2 50 км 10/0
[As op]
-14.1 -16.1 85 -19 -19 995.9 985.8
12 15.02 Ю 2 20 км слаб. снег 10/0
[As op]
-13.5 -15.5 85 -18 -18 993.9 983.8 -13.3 0.7
15 15.02 Ю 1 20 км слаб. снег 10/0
[As op]
-14.4 -16.4 85 -17 -17 991.6 981.6
21 15.02 штиль 0 20 км слаб. снег 10/0
[As op]
-18.1 -20.0 85 -18 -18 992.2 981.9
00 16.02 С 1 50 км {снег} 10/0
[Ac As]
-21.5 -23.3 85 -25 -25 995.4 985.1 -22.5 0.9 27
03 16.02 СЗ 2 20 км слаб. снег 10/0
[As op]
-18.4 -21.0 80 -24 -24 999.2 988.9
06 16.02 СЗ 3 20 км слаб. снег {метель} 9/0
[Ac trans Cs]
-21.9 -25.1 75 -30 -30 1003.3 992.9
09 16.02 С 1 50 км {снег, метель} 8/0
[Ac trans Cs]
-24.7 -27.1 80 -28 -28 1006.8 996.2
15 16.02 штиль 0 50 км 8/0
[Ac trans Ci fib]
-32.6 -34.8 81 -33 -33 опасность
обморожения
1009.3 998.2
18 16.02 В 1 50 км 4/0
[Ac trans Ci fib]
-33.9 -36.1 80 -38 -38 опасность
обморожения
1009.6 998.5
21 16.02 штиль 0 50 км 4/0
[Ci fib]
-34.9 -37.0 81 -35 -35 опасность
обморожения
1009.6 998.5
00 17.02 С 1 50 км 8/0
[Ac As]
-36.0 -38.4 78 -41 -41 опасность
обморожения
1008.9 997.8 -37.8 27
03 17.02 Ю 1 50 км 9/0
[Ac As]
-32.2 -34.6 79 -37 -36 опасность
обморожения
1008.3 997.5
06 17.02 ЮВ 1 50 км 8/0
[Ac trans]
-26.1 -28.5 80 -30 -30 1006.9 996.3
09 17.02 штиль 0 50 км ясно -25.9 -28.4 79 -26 -26 1006.8 996.2
12 17.02 штиль 0 50 км ясно -29.8 -32.1 80 -30 -30 1007.7 996.9 -23.9
15 17.02 В 1 50 км 3/0
[Cs]
-34.2 -36.4 80 -39 -39 опасность
обморожения
1008.2 997.1
18 17.02 С 1 50 км 3/0
[Cs]
-36.6 -39.4 75 -41 -41 опасность
обморожения
1008.6 997.5
21 17.02 штиль 0 50 км 3/0
[Cs]
-38.0 -40.9 74 -38 -38 опасность
обморожения
1009.1 997.8
00 18.02 штиль 0 50 км 4/0
[Ac trans Cs]
-39.0 -41.7 75 -39 -39 опасность
обморожения
1009.9 998.6 -39.1 27
03 18.02 штиль 0 50 км 3/0
[Cs]
-37.5 -40.5 73 -38 -37 опасность
обморожения
1008.7 997.4
06 18.02 штиль 0 50 км 8/0
[Ac As Cs]
-33.2 -36.2 74 -33 -33 опасность
обморожения
1009.2 998.1
09 18.02 штиль 0 20 км слаб. снег 10/0
[Ac As]
-31.0 -33.4 79 -31 -31 опасность
обморожения
1008.2 997.4
12 18.02 штиль 0 20 км слаб. снег 10/0
[Cs]
-30.0 -32.3 80 -30 -30 1008.2 997.4 -29.8 0.4
15 18.02 штиль 0 50 км {снег} 4/0
[Ac lent Cs]
-32.7 -35.1 79 -33 -33 опасность
обморожения
1008.5 997.4
18 18.02 штиль 0 50 км {снег} 4/0
[Ci fib]
-33.2 -35.6 79 -33 -33 опасность
обморожения
1008.5 997.4
21 18.02 штиль 0 50 км 5/0
[Cs]
-35.5 -37.7 80 -36 -36 опасность
обморожения
1009.2 998.1
00 19.02 штиль 0 50 км 5/0
[Cs]
-37.0 -39.7 76 -37 -37 опасность
обморожения
1009.8 998.7 -37.0 0.0 27
03 19.02 Ю 1 50 км 3/0
[Cs]
-35.7 -38.6 75 -40 -40 опасность
обморожения
1000.1 999.4
06 19.02 штиль 0 50 км 3/0
[Ac trans Cs]
-31.4 -34.2 76 -31 -31 опасность
обморожения
1000.6 999.8
09 19.02 штиль 0 50 км ясно -31.6 -34.5 75 -32 -32 опасность
обморожения
1011.8 1000.9
12 19.02 штиль 0 50 км ясно -36.3 -39.0 76 -36 -36 опасность
обморожения
1013.7 1002.5 -30.0
15 19.02 штиль 0 50 км ясно -39.4 -42.2 75 -39 -39 опасность
обморожения
1015.1 1003.7
18 19.02 штиль 0 50 км ясно -40.6 -43.2 76 -41 -41 опасность
обморожения
1015.9 1004.5
21 19.02 штиль 0 50 км ясно -41.5 -44.3 74 -42 -42 опасность
обморожения
1016.7 1005.3
00 20.02 штиль 0 50 км ясно -42.4 -44.8 77 -42 -42 опасность
обморожения
1017.5 1006.1 -42.4 27
03 20.02 СЗ 1 50 км ясно -38.9 -41.7 75 -44 -43 опасность
обморожения
1018.0 1006.6

 

Местоположение метеостанции Сухана (Якутия, Россия): широта 68.62 долгота 118.30 высота над уровнем моря 77 м.

В архиве по умолчанию представлена погода в Сухане за последнюю неделю. Архивные данные за месяц целиком и за предыдущие месяцы, начиная с января 2011 года, Вы можете получить, выбрав интересующий диапазон дат из раскрывающегося списка и нажав кнопку "Ввод!".


*Определитесь, кто Вы:
робот инопланетянин человек

Внимание! Время в таблицах - всемирное. Для получения местного времени необходимо прибавить поправку, которая равна 9 ч.

Смотрите также архив погоды в соседних городах и на ближайших метеорологических станциях:

Погода в Джарджане (Якутия, Россия) (231 км)
Погода в Оленеке (Якутия, Россия) (240 км)
Погода в Джалинде (Якутия, Россия) (241 км)
Погода в Эйке (Якутия, Россия) (291 км)
Погода в Жиганске (Якутия, Россия) (294 км)
Погода в Шелагонцах (Якутия, Россия) (316 км)
Погода в Полярном (Якутия, Россия) (326 км)
Погода в Саскылахе (Якутия, Россия) (406 км)
Погода в Тюмяти (Якутия, Россия) (415 км)
Погода в Айхале (Якутия, Россия) (419 км)

Пояснения к столбцам:

Ветер - указаны скорость ветра в м/с - средняя за 10 мин, порывы в срок и между сроками (в фигурных скобках) и направление, откуда дует ветер: С - северный, СВ - северо-восточный, В - восточный, ЮВ - юго-восточный, Ю - южный, ЮЗ - юго-западный, З - западный, СЗ - северо-западный.
Видимость - горизонтальная дальность видимости в метрах или километрах. При видимости от 1 до 10 км при отсутствии осадков обычно наблюдается дымка, при ухудшении видимости до 1 км и менее - туман. В сухую погоду видимость может ухудшаться дымом, пылью или мглою.
Явления - указаны атмосферные явления, наблюдавшиеся в срок или в последний час перед сроком; фигурными скобками обозначены явления, наблюдавшиеся между сроками (за 1-3 часа до срока); квадратными скобками обозначены град или гололедные отложения с указанием их диаметра в мм.
Облачность - указаны через наклонную черту общая и нижняя облачность в баллах и высота нижней границы облаков в метрах; квадратными скобками обозначены формы облаков: Ci - перистые, Cs - перисто-слоистые, Cc - перисто-кучевые, Ac - высококучевые, As - высокослоистые, Sc - слоисто-кучевые, Ns - слоисто-дождевые, Cu - кучевые, Cb - кучево-дождевые. Подробнее классификацию облаков см. в Атласе облаков (PDF).
T - Температура воздуха - температура, измеренная на высоте 2 м над землей.
Td - Температура точки росы - температура, при понижении до которой содержащийся в воздухе водяной пар достигнет насыщения.
f - Относительная влажность воздуха - влажноcть воздуха, измеренная на высоте 2 м над землей.
Te - Эффективная температура - температура, которую ощущает одетый по сезону человек в тени. Характеристика душности погоды. При расчете учитывается влияние влажности воздуха и скорости ветра на теплоощущения человека.
Tes - Эффективная температура на солнце - температура, которую ощущает человек, с поправкой на солнечный нагрев. Характеристика знойности погоды. Зависит от высоты солнца над горизонтом, облачности и скорости ветра. Ночью, в пасмурную погоду, а также при ветре 12 м/с и более поправка равна нулю.
P - Атмосферное давление - приведенное к уровню моря атмосферное давление.
Po - Атмосферное давление - измеренное на уровне метеостанции атмосферное давление.
Tmin - Минимальная температура - минимум температуры воздуха на высоте 2 м над землей.
Tmax - Максимальная температура - максимум температуры воздуха на высоте 2 м над землей.
R - Количество осадков - Количество выпавших осадков за период времени, мм. При наведении курсора мыши на число - период времени, за который выпало указанное количество осадков.
R24 - Количество осадков - Количество выпавших осадков за 24 часа, мм.
S - Снежный покров - Высота снежного покрова, см. При наведении курсора мыши на число - состояние снежного покрова и степень покрытия местности в баллах.